Weather History for Gulkana, AK

Change the Weather History Date:

Saturday, October 1, 2011

  Actual Average Record
Temperature  
Mean Temperature 40 °F -  
Max Temperature 46 °F 46 °F 68 °F (2003)
Min Temperature 35 °F 29 °F 8 °F (1972)
Degree Days  
Heating Degree Days 24    
Moisture  
Dew Point 28 °F    
Average Humidity 61    
Maximum Humidity 76    
Minimum Humidity 47    
Precipitation  
Precipitation 0.00 in - - ()
Sea Level Pressure  
Sea Level Pressure 29.69 in    
Wind  
Wind Speed 9 mph (East)    
Max Wind Speed 15 mph    
Max Gust Speed 25 mph    
Visibility 10 miles    
Events      
Averages and records for this station are not official NWS values.
T = Trace of Precipitation, MM = Missing Value Source: NWS Daily Summary

Daily Weather History Graph

Daily Weather History Graph

Search for Another Location

Airport:

Trip Planner

Search our weather history database for the weather conditions in past years. The results will help you decide how hot, cold, wet, or windy it might be!

Date:

Astronomy

Oct. 01, 2011 Rise Set
Actual Time 7:48 AM AKDT 7:12 PM AKDT
Civil Twilight 7:04 AM AKDT 7:56 PM AKDT
Nautical Twilight 6:12 AM AKDT 8:49 PM AKDT
Astronomical Twilight 5:16 AM AKDT 9:44 PM AKDT
Moon 3:07 PM AKDT (10/1) 8:16 PM AKDT (10/1)
Length of Visible Light 12h 52m
Length of Day
11h 23m
Waxing Crescent, 26% of the Moon is Illuminated
Oct 1
Waxing Crescent
Oct 3
First Quarter
Oct 11
Full
Oct 19
Last Quarter
Oct 26
New

Hourly Weather History & Observations

Time (AKDT) Temp. Windchill Dew Point Humidity Pressure Visibility Wind Dir Wind Speed Gust Speed Precip Events Conditions
12:53 AM 37.4 °F 28.5 °F 30.2 °F 75% 29.65 in 10.0 mi SSE 15.0 mph 25.3 mph N/A   Overcast
1:53 AM 37.9 °F 30.5 °F 30.0 °F 73% 29.71 in 10.0 mi SSE 11.5 mph - N/A   Overcast
2:53 AM 37.9 °F 30.0 °F 28.0 °F 68% 29.70 in 10.0 mi SSE 12.7 mph - N/A   Overcast
3:53 AM 39.2 °F 31.6 °F 26.6 °F 61% 29.65 in 10.0 mi SSE 12.7 mph 20.7 mph N/A   Mostly Cloudy
4:53 AM 37.9 °F 32.7 °F 24.1 °F 57% 29.70 in 10.0 mi ESE 6.9 mph - N/A   Scattered Clouds
5:53 AM 37.0 °F 34.5 °F 24.1 °F 59% 29.70 in 10.0 mi East 3.5 mph - N/A   Mostly Cloudy
6:00 AM 37.4 °F 32.8 °F 24.8 °F 60% 29.66 in 10.0 mi East 5.8 mph - N/A   Mostly Cloudy
6:53 AM 37.0 °F 31.6 °F 25.0 °F 62% 29.72 in 10.0 mi East 6.9 mph - N/A   Mostly Cloudy
7:53 AM 35.1 °F 32.2 °F 28.0 °F 76% 29.72 in 10.0 mi NE 3.5 mph - N/A   Overcast
8:53 AM 35.1 °F 32.2 °F 28.0 °F 76% 29.73 in 10.0 mi NNE 3.5 mph - N/A   Overcast
9:53 AM 37.0 °F 33.3 °F 28.9 °F 73% 29.73 in 10.0 mi NNE 4.6 mph - N/A   Overcast
10:53 AM 37.9 °F 33.5 °F 28.9 °F 70% 29.73 in 10.0 mi North 5.8 mph - N/A   Overcast
11:53 AM 39.2 °F 35.0 °F 30.2 °F 70% 29.68 in 10.0 mi NNE 5.8 mph - N/A   Overcast
12:53 PM 41.0 °F 38.0 °F 28.9 °F 62% 29.73 in 10.0 mi NNE 4.6 mph - N/A   Overcast
1:53 PM 43.0 °F 38.2 °F 28.9 °F 58% 29.71 in 10.0 mi NNE 8.1 mph - N/A   Overcast
2:53 PM 46.0 °F 41.9 °F 27.0 °F 47% 29.70 in 10.0 mi NE 8.1 mph - N/A   Overcast
3:53 PM 46.0 °F 43.1 °F 28.9 °F 51% 29.68 in 10.0 mi NE 5.8 mph - N/A   Overcast
4:53 PM 46.4 °F 43.5 °F 30.2 °F 53% 29.63 in 10.0 mi NE 5.8 mph - N/A   Overcast
5:53 PM 46.9 °F - 28.0 °F 48% 29.67 in 10.0 mi ENE 4.6 mph - N/A   Overcast
6:53 PM 45.0 °F 41.8 °F 28.0 °F 52% 29.67 in 10.0 mi ENE 5.8 mph - N/A   Overcast
7:53 PM 44.1 °F 40.8 °F 28.0 °F 53% 29.67 in 10.0 mi ENE 5.8 mph - N/A   Overcast
8:53 PM 43.0 °F 38.2 °F 28.0 °F 56% 29.68 in 10.0 mi ESE 8.1 mph - N/A   Overcast
9:24 PM 42.8 °F 38.6 °F 28.4 °F 57% 29.62 in 10.0 mi SE 6.9 mph - N/A   Overcast
9:53 PM 43.0 °F 39.5 °F 28.0 °F 56% 29.68 in 10.0 mi SE 5.8 mph - N/A   Mostly Cloudy
10:53 PM 42.1 °F 38.4 °F 28.0 °F 58% 29.69 in 10.0 mi ESE 5.8 mph - N/A   Clear
11:53 PM 42.1 °F 36.6 °F 28.0 °F 58% 29.68 in 10.0 mi SE 9.2 mph - N/A   Clear